N2PYI-13 Weather Reports


Display with metric or nautical units.
time (UTC)temp
F
wind
direction
speed
MPH
gust
MPH
rain 1hr
in
rain 24hr
in
rain mn
in
humidity
%
barometer
mb
20260503100145 37 0 0.0 0.0 0.00 0.00 0.00 86 1010.0
20260503100139 37 0 0.0 0.0 0.00 0.00 0.00 86 1010.0
20260503090437 37 0 0.0 0.0 0.00 0.00 0.00 85 1009.9
20260503090336 37 0 0.0 0.0 0.00 0.00 0.00 85 1009.9
20260503090237 37 0 0.0 0.0 0.00 0.00 0.00 85 1009.9
20260503090137 37 0 0.0 0.0 0.00 0.00 0.00 85 1009.9
20260503081636 37 0 0.0 0.0 0.00 0.00 0.00 84 1009.9
20260503081537 37 0 0.0 0.0 0.00 0.00 0.00 84 1009.9
20260503081443 37 0 0.0 0.0 0.00 0.00 0.00 84 10.0
20260503081437 37 0 0.0 0.0 0.00 0.00 0.00 84 1009.9
20260503081337 37 0 0.0 0.0 0.00 0.00 0.00 84 1009.9
20260503081236 37 0 0.0 0.0 0.00 0.00 0.00 84 1009.9
20260503081143 77 0 0.0 0.0 0.00 0.00 0.00 84 1009.9
20260503081136 37 0 0.0 0.0 0.00 0.00 0.00 84 1009.9
20260503081037 37 0 0.0 0.0 0.00 0.00 0.00 84 1009.9
20260503080937 37 0 0.0 0.0 0.00 0.00 0.00 84 1009.9
20260503080837 37 0 0.0 0.0 0.00 0.00 0.00 84 1009.9
20260503080736 37 0 0.0 0.0 0.00 0.00 0.00 84 1009.9
20260503080636 37 0 0.0 0.0 0.00 0.00 0.00 84 1009.9
20260503080537 37 0 0.0 0.0 0.00 0.00 0.00 84 1009.9
20260503080437 37 0 0.0 0.0 0.00 0.00 0.00 84 1009.9
20260503080337 37 0 0.0 0.0 0.00 0.00 0.00 84 1009.9
20260503080236 37 0 0.0 0.0 0.00 0.00 0.00 84 1009.9
20260503080136 37 0 0.0 0.0 0.00 0.00 0.00 84 1009.9
20260503072937 38 0 0.0 0.0 0.00 0.00 0.00 84 1009.9
20260503072837 38 0 0.0 0.0 0.00 0.00 0.00 84 1009.9
20260503072736 37 0 0.0 0.0 0.00 0.00 0.00 84 1009.9
20260503072636 37 0 0.0 0.0 0.00 0.00 0.00 84 1009.8
20260503072536 37 0 0.0 0.0 0.00 0.00 0.00 84 1009.8
20260503072437 37 0 0.0 0.0 0.00 0.00 0.00 84 1009.8
20260503072337 37 0 0.0 0.0 0.00 0.00 0.00 84 1009.8
20260503072237 37 0 0.0 0.0 0.00 0.00 0.00 84 1009.8
20260503072136 37 0 0.0 0.0 0.00 0.00 0.00 85 1009.8
20260503072036 37 0 0.0 0.0 0.00 0.00 0.00 85 1009.8
20260503071943 37 0 0.0 0.0 0.00 0.00 0.00 85 1009.8
20260503071937 37 0 0.0 0.0 0.00 0.00 0.00 85 1009.8
20260503071837 37 0 0.0 0.0 0.00 0.00 0.00 85 1009.8
20260503071737 37 0 0.0 0.0 0.00 0.00 0.00 85 1009.8
20260503071636 37 0 0.0 0.0 0.00 0.00 0.00 85 1009.8
20260503071536 37 0 0.0 0.0 0.00 0.00 0.00 85 1009.8
20260503071443 37 0 0.0 0.0 0.00 0.00 0.00 1009.8
20260503071437 37 0 0.0 0.0 0.00 0.00 0.00 85 1009.8
20260503071337 37 0 0.0 0.0 0.00 0.00 0.00 85 1009.8
20260503071237 37 0 0.0 0.0 0.00 0.00 0.00 85 1009.8
20260503071136 37 0 0.0 0.0 0.00 0.00 0.00 85 1009.8
20260503071036 37 0 0.0 0.0 0.00 0.00 0.00 85 1009.8
20260503070943 37 0 0.0 0.0 0.00 0.00 0.00 85 1009.8
20260503070937 37 0 0.0 0.0 0.00 0.00 0.00 85 1009.8
20260503070843 37 0 0.0 0.0 0.00 0.00 0.00 85 1009.8
20260503070837 37 0 0.0 0.0 0.00 0.00 0.00 85 1009.8
20260503070637 37 0 0.0 0.0 0.00 0.00 0.00 85 1009.8
20260503070542 37 0 0.0 0.0 0.00 0.00 0.00 85
20260503070536 37 0 0.0 0.0 0.00 0.00 0.00 85 1009.8
20260503070443 37 0 0.0 0.0 0.00 0.00 0.00 85 1009.8
20260503070436 37 0 0.0 0.0 0.00 0.00 0.00 85 1009.8
20260503070337 37 0 0.0 0.0 0.00 0.00 0.00 85 1009.8
20260503070244 37 0 0.0 0.0 0.00 0.00 0.00 85 1009.8
20260503070237 37 0 0.0 0.0 0.00 0.00 0.00 85 1009.8
20260503070137 37 0 0.0 0.0 0.00 0.00 0.00 85 1009.8
20260503060336 38 0 0.0 0.0 0.00 0.00 0.00 84 1010.1
20260503060237 38 0 0.0 0.0 0.00 0.00 0.00 84 1010.1
20260503060136 38 0 0.0 0.0 0.00 0.00 0.00 84 1010.1
20260503055037 38 0 0.0 0.0 0.00 0.00 0.00 85 1010.3
20260503054943 38 0 0.0 0.0 0.00 0.00 0.00 85 1.0
20260503054937 38 0 0.0 0.0 0.00 0.00 0.00 85 1010.3
20260503054842 38 0 0.0 0.0 0.00 0.00 0.00 85 1010.7
20260503054836 38 0 0.0 0.0 0.00 0.00 0.00 85 1010.3
20260503054736 38 0 0.0 0.0 0.00 0.00 0.00 85 1010.3
20260503054637 38 0 0.0 0.0 0.00 0.00 0.00 84 1010.3
20260503054537 38 0 0.0 0.0 0.00 0.00 0.00 84 1010.3
20260503054436 38 0 0.0 0.0 0.00 0.00 0.00 84 1010.3
20260503054336 38 0 0.0 0.0 0.00 0.00 0.00 84 1010.3
20260503054243 38 0 0.0 0.0 0.00 0.00 0.00 84
20260503054236 38 0 0.0 0.0 0.00 0.00 0.00 84 1010.3
20260503054137 38 0 0.0 0.0 0.00 0.00 0.00 84 1010.4
20260503054043 38 0 0.0 0.0 0.00 0.00 0.00 1010.4
20260503054037 38 0 0.0 0.0 0.00 0.00 0.00 84 1010.4
20260503053936 38 0 0.0 0.0 0.00 0.00 0.00 84 1010.4
20260503053842 0 0 0.0 0.0 0.00 0.00 0.00 84 1010.4
20260503053836 38 0 0.0 0.0 0.00 0.00 0.00 84 1010.4
20260503053736 38 0 0.0 0.0 0.00 0.00 0.00 84 1010.4
20260503053636 38 0 0.0 0.0 0.00 0.00 0.00 84 1010.4
20260503053542 78 0 0.0 0.0 0.00 0.00 0.00 84 1010.4
20260503053537 38 0 0.0 0.0 0.00 0.00 0.00 84 1010.4
20260503053436 38 0 0.0 0.0 0.00 0.00 0.00 84 1010.4
20260503053342 38 0 0.0 0.0 0.00 0.00 0.00 84 101.0
20260503053336 38 0 0.0 0.0 0.00 0.00 0.00 84 1010.4
20260503053236 38 0 0.0 0.0 0.00 0.00 0.00 84 1010.4
20260503053136 38 0 0.0 0.0 0.00 0.00 0.00 84 1010.4
20260503053037 38 0 0.0 0.0 0.00 0.00 0.00 84 1010.4
20260503052943 38 0 0.0 0.0 0.00 0.00 0.00 84 1010.4
20260503052937 38 0 0.0 0.0 0.00 0.00 0.00 84 1010.4
20260503052836 38 0 0.0 0.0 0.00 0.00 0.00 84 1010.4